| time (UTC) | temp F | wind direction | speed MPH | gust MPH | rain 1hr in | rain 24hr in | rain mn in | humidity % | barometer mb |
| 20260902223249 | 75 | 232 | 11.0 | 17.0 | 0.00 | 0.00 | 0.00 | 23 | 930.7 |
| 20260902222748 | 75 | 199 | 5.0 | 13.0 | 0.00 | 0.00 | 0.00 | 25 | 930.5 |
| 20260902222248 | 75 | 316 | 3.0 | 15.0 | 0.00 | 0.00 | 0.00 | 25 | 930.8 |
| 20260902221742 | 76 | 249 | 6.0 | 11.0 | 0.00 | 0.00 | 0.00 | 25 | 930.9 |
| 20260902221242 | 75 | 233 | 9.0 | 14.0 | 0.00 | 0.00 | 0.00 | 25 | 930.5 |
| 20260902220738 | 75 | 184 | 10.0 | 14.0 | 0.00 | 0.00 | 0.00 | 25 | 930.7 |
| 20260902220237 | 75 | 241 | 9.0 | 11.0 | 0.00 | 0.00 | 0.00 | 25 | 930.8 |
| 20260902215733 | 77 | 159 | 6.0 | 14.0 | 0.00 | 0.00 | 0.00 | 24 | 930.8 |
| 20260902215228 | 77 | 166 | 9.0 | 14.0 | 0.00 | 0.00 | 0.00 | 25 | 930.5 |
| 20260902214724 | 76 | 211 | 11.0 | 18.0 | 0.00 | 0.00 | 0.00 | 25 | 930.7 |
| 20260902214222 | 76 | 224 | 11.0 | 14.0 | 0.00 | 0.00 | 0.00 | 25 | 930.5 |
| 20260902213718 | 77 | 256 | 4.0 | 16.0 | 0.00 | 0.00 | 0.00 | 25 | 930.7 |
| 20260902213213 | 76 | 167 | 6.0 | 14.0 | 0.00 | 0.00 | 0.00 | 25 | 930.7 |
| 20260902212713 | 77 | 236 | 13.0 | 16.0 | 0.00 | 0.00 | 0.00 | 24 | 930.7 |
| 20260902212209 | 77 | 267 | 7.0 | 15.0 | 0.00 | 0.00 | 0.00 | 25 | 930.8 |
| 20260902211705 | 77 | 273 | 8.0 | 15.0 | 0.00 | 0.00 | 0.00 | 26 | 930.5 |
| 20260902211200 | 76 | 201 | 13.0 | 21.0 | 0.00 | 0.00 | 0.00 | 27 | 930.8 |
| 20260902210659 | 77 | 275 | 7.0 | 14.0 | 0.00 | 0.00 | 0.00 | 28 | 930.7 |
| 20260902210155 | 77 | 245 | 7.0 | 11.0 | 0.00 | 0.00 | 0.00 | 26 | 930.9 |
| 20260902205653 | 75 | 234 | 7.0 | 17.0 | 0.00 | 0.00 | 0.00 | 28 | 930.9 |
| 20260902205148 | 75 | 198 | 10.0 | 16.0 | 0.00 | 0.00 | 0.00 | 28 | 930.8 |
| 20260902204643 | 76 | 178 | 6.0 | 18.0 | 0.00 | 0.00 | 0.00 | 28 | 931.0 |
| 20260902204138 | 75 | 148 | 7.0 | 18.0 | 0.00 | 0.00 | 0.00 | 28 | 930.9 |
| 20260902203634 | 77 | 243 | 6.0 | 14.0 | 0.00 | 0.00 | 0.00 | 28 | 931.1 |
| 20260902203133 | 76 | 238 | 7.0 | 14.0 | 0.00 | 0.00 | 0.00 | 29 | 931.2 |
| 20260902202629 | 75 | 233 | 13.0 | 23.0 | 0.00 | 0.00 | 0.00 | 29 | 930.9 |
| 20260902202125 | 76 | 233 | 8.0 | 26.0 | 0.00 | 0.00 | 0.00 | 29 | 931.1 |
| 20260902201621 | 75 | 192 | 10.0 | 13.0 | 0.00 | 0.00 | 0.00 | 30 | 931.2 |
| 20260902201120 | 75 | 336 | 1.0 | 20.0 | 0.00 | 0.00 | 0.00 | 29 | 931.2 |
| 20260902200615 | 76 | 216 | 14.0 | 20.0 | 0.00 | 0.00 | 0.00 | 28 | 931.1 |
| 20260902200112 | 75 | 240 | 12.0 | 21.0 | 0.00 | 0.00 | 0.00 | 31 | 931.3 |
| 20260902195607 | 75 | 233 | 9.0 | 29.0 | 0.00 | 0.00 | 0.00 | 30 | 931.5 |
| 20260902195106 | 75 | 194 | 20.0 | 34.0 | 0.00 | 0.00 | 0.00 | 29 | 931.6 |
| 20260902194606 | 75 | 238 | 11.0 | 17.0 | 0.00 | 0.00 | 0.00 | 32 | 931.5 |
| 20260902194101 | 75 | 130 | 15.0 | 20.0 | 0.00 | 0.00 | 0.00 | 32 | 931.7 |
| 20260902193557 | 75 | 193 | 8.0 | 18.0 | 0.00 | 0.00 | 0.00 | 33 | 931.7 |
| 20260902193056 | 75 | 267 | 16.0 | 23.0 | 0.00 | 0.00 | 0.00 | 31 | 931.7 |
| 20260902192555 | 74 | 148 | 8.0 | 18.0 | 0.00 | 0.00 | 0.00 | 34 | 931.7 |
| 20260902192054 | 74 | 215 | 10.0 | 13.0 | 0.00 | 0.00 | 0.00 | 33 | 931.8 |
| 20260902191549 | 75 | 202 | 12.0 | 24.0 | 0.00 | 0.00 | 0.00 | 33 | 931.3 |
| 20260902191043 | 74 | 193 | 13.0 | 21.0 | 0.00 | 0.00 | 0.00 | 34 | 931.8 |
| 20260902190539 | 75 | 230 | 15.0 | 20.0 | 0.00 | 0.00 | 0.00 | 34 | 932.0 |
| 20260902190035 | 74 | 227 | 3.0 | 23.0 | 0.00 | 0.00 | 0.00 | 35 | 931.9 |
| 20260902185531 | 74 | 315 | 10.0 | 17.0 | 0.00 | 0.00 | 0.00 | 35 | 931.8 |
| 20260902185026 | 74 | 253 | 11.0 | 20.0 | 0.00 | 0.00 | 0.00 | 35 | 931.9 |
| 20260902184521 | 73 | 199 | 12.0 | 21.0 | 0.00 | 0.00 | 0.00 | 35 | 932.4 |
| 20260902184016 | 73 | 201 | 9.0 | 17.0 | 0.00 | 0.00 | 0.00 | 37 | 932.0 |
| 20260902183513 | 72 | 206 | 7.0 | 17.0 | 0.00 | 0.00 | 0.00 | 37 | 932.4 |
| 20260902183009 | 72 | 246 | 5.0 | 20.0 | 0.00 | 0.00 | 0.00 | 39 | 932.3 |
| 20260902182504 | 73 | 188 | 16.0 | 21.0 | 0.00 | 0.00 | 0.00 | 37 | 932.4 |
| 20260902182000 | 73 | 194 | 6.0 | 15.0 | 0.00 | 0.00 | 0.00 | 37 | 932.6 |
| 20260902181456 | 73 | 279 | 8.0 | 15.0 | 0.00 | 0.00 | 0.00 | 37 | 932.5 |
| 20260902180950 | 73 | 200 | 9.0 | 23.0 | 0.00 | 0.00 | 0.00 | 36 | 932.3 |
| 20260902180445 | 72 | 214 | 11.0 | 17.0 | 0.00 | 0.00 | 0.00 | 37 | 932.5 |
| 20260902175941 | 72 | 177 | 15.0 | 24.0 | 0.00 | 0.00 | 0.00 | 36 | 932.6 |
| 20260902175441 | 73 | 244 | 15.0 | 21.0 | 0.00 | 0.00 | 0.00 | 37 | 932.4 |
| 20260902174937 | 72 | 150 | 10.0 | 17.0 | 0.00 | 0.00 | 0.00 | 37 | 932.8 |
| 20260902174434 | 72 | 213 | 10.0 | 16.0 | 0.00 | 0.00 | 0.00 | 37 | 932.6 |
| 20260902173929 | 70 | 278 | 10.0 | 13.0 | 0.00 | 0.00 | 0.00 | 38 | 933.1 |
| 20260902173428 | 70 | 251 | 10.0 | 18.0 | 0.00 | 0.00 | 0.00 | 38 | 933.4 |
| 20260902172923 | 71 | 226 | 11.0 | 18.0 | 0.00 | 0.00 | 0.00 | 37 | 933.2 |
| 20260902172423 | 73 | 249 | 10.0 | 16.0 | 0.00 | 0.00 | 0.00 | 38 | 932.9 |
| 20260902171918 | 72 | 252 | 13.0 | 21.0 | 0.00 | 0.00 | 0.00 | 38 | 932.7 |
| 20260902171413 | 72 | 241 | 8.0 | 10.0 | 0.00 | 0.00 | 0.00 | 38 | 932.6 |
| 20260902170909 | 72 | 183 | 10.0 | 16.0 | 0.00 | 0.00 | 0.00 | 38 | 932.6 |
| 20260902170404 | 72 | 254 | 11.0 | 16.0 | 0.00 | 0.00 | 0.00 | 39 | 932.6 |
| 20260902165900 | 71 | 287 | 7.0 | 18.0 | 0.00 | 0.00 | 0.00 | 40 | 932.5 |
| 20260902165359 | 71 | 211 | 6.0 | 14.0 | 0.00 | 0.00 | 0.00 | 41 | 932.7 |
| 20260902164854 | 71 | 177 | 7.0 | 14.0 | 0.00 | 0.00 | 0.00 | 40 | 933.1 |
| 20260902164349 | 70 | 249 | 10.0 | 14.0 | 0.00 | 0.00 | 0.00 | 40 | 932.8 |
| 20260902163848 | 69 | 175 | 5.0 | 13.0 | 0.00 | 0.00 | 0.00 | 43 | 932.9 |
| 20260902163343 | 69 | 295 | 3.0 | 14.0 | 0.00 | 0.00 | 0.00 | 44 | 933.1 |
| 20260902162841 | 70 | 183 | 0.0 | 11.0 | 0.00 | 0.00 | 0.00 | 42 | 933.3 |
| 20260902162336 | 69 | 212 | 9.0 | 13.0 | 0.00 | 0.00 | 0.00 | 45 | 932.8 |
| 20260902161831 | 69 | 102 | 3.0 | 10.0 | 0.00 | 0.00 | 0.00 | 45 | 933.1 |
| 20260902161327 | 69 | 213 | 9.0 | 14.0 | 0.00 | 0.00 | 0.00 | 45 | 932.9 |
| 20260902160823 | 69 | 221 | 9.0 | 11.0 | 0.00 | 0.00 | 0.00 | 45 | 932.8 |
| 20260902160318 | 68 | 183 | 6.0 | 13.0 | 0.00 | 0.00 | 0.00 | 47 | 932.9 |
| 20260902155816 | 68 | 229 | 8.0 | 18.0 | 0.00 | 0.00 | 0.00 | 47 | 933.1 |
| 20260902155315 | 67 | 155 | 4.0 | 16.0 | 0.00 | 0.00 | 0.00 | 49 | 932.9 |
| 20260902154810 | 67 | 200 | 6.0 | 21.0 | 0.00 | 0.00 | 0.00 | 51 | 933.2 |
| 20260902154306 | 66 | 189 | 4.0 | 8.0 | 0.00 | 0.00 | 0.00 | 53 | 933.4 |
| 20260902153804 | 66 | 191 | 8.0 | 13.0 | 0.00 | 0.00 | 0.00 | 53 | 933.5 |
| 20260902153259 | 65 | 210 | 3.0 | 10.0 | 0.00 | 0.00 | 0.00 | 56 | 933.4 |
| 20260902152755 | 64 | 187 | 5.0 | 6.0 | 0.00 | 0.00 | 0.00 | 57 | 933.4 |
| 20260902152251 | 63 | 227 | 7.0 | 11.0 | 0.00 | 0.00 | 0.00 | 57 | 933.5 |
| 20260902151751 | 62 | 213 | 5.0 | 9.0 | 0.00 | 0.00 | 0.00 | 59 | 933.3 |
| 20260902151246 | 61 | 150 | 3.0 | 8.0 | 0.00 | 0.00 | 0.00 | 62 | 933.4 |
| 20260902150745 | 61 | 191 | 6.0 | 9.0 | 0.00 | 0.00 | 0.00 | 62 | 933.5 |
| 20260902150242 | 59 | 226 | 6.0 | 13.0 | 0.00 | 0.00 | 0.00 | 67 | 933.5 |
| 20260902145741 | 59 | 63 | 1.0 | 2.0 | 0.00 | 0.00 | 0.00 | 69 | 933.4 |
| 20260902145237 | 59 | 40 | 0.0 | 1.0 | 0.00 | 0.00 | 0.00 | 71 | 933.5 |
| 20260902144732 | 58 | 60 | 1.0 | 3.0 | 0.00 | 0.00 | 0.00 | 71 | 933.6 |
| 20260902144228 | 57 | 67 | 0.0 | 0.0 | 0.00 | 0.00 | 0.00 | 72 | 933.6 |
| 20260902143723 | 57 | 133 | 0.0 | 0.0 | 0.00 | 0.00 | 0.00 | 72 | 933.4 |
| 20260902143218 | 57 | 42 | 0.0 | 0.0 | 0.00 | 0.00 | 0.00 | 71 | 933.6 |
| 20260902142714 | 57 | 50 | 0.0 | 1.0 | 0.00 | 0.00 | 0.00 | 71 | 933.7 |
| 20260902142209 | 57 | 50 | 0.0 | 3.0 | 0.00 | 0.00 | 0.00 | 71 | 933.7 |
| 20260902141709 | 58 | 90 | 3.0 | 3.0 | 0.00 | 0.00 | 0.00 | 70 | 933.9 |
| 20260902141205 | 57 | 37 | 0.0 | 0.0 | 0.00 | 0.00 | 0.00 | 71 | 934.2 |
| 20260902140701 | 55 | 73 | 1.0 | 3.0 | 0.00 | 0.00 | 0.00 | 75 | 934.1 |
| 20260902140200 | 54 | 51 | 0.0 | 0.0 | 0.00 | 0.00 | 0.00 | 77 | 934.2 |
| 20260902135700 | 54 | 54 | 0.0 | 0.0 | 0.00 | 0.00 | 0.00 | 78 | 934.1 |
| 20260902135155 | 53 | 44 | 0.0 | 0.0 | 0.00 | 0.00 | 0.00 | 78 | 934.0 |
| 20260902134650 | 53 | 73 | 2.0 | 3.0 | 0.00 | 0.00 | 0.00 | 79 | 933.7 |
| 20260902134150 | 53 | 81 | 0.0 | 0.0 | 0.00 | 0.00 | 0.00 | 78 | 932.9 |
| 20260902133645 | 53 | 63 | 0.0 | 0.0 | 0.00 | 0.00 | 0.00 | 78 | 933.1 |
| 20260902133140 | 52 | 64 | 1.0 | 2.0 | 0.00 | 0.00 | 0.00 | 80 | 933.2 |
| 20260902132635 | 51 | 8 | 1.0 | 2.0 | 0.00 | 0.00 | 0.00 | 82 | 932.6 |
| 20260902132131 | 51 | 40 | 0.0 | 0.0 | 0.00 | 0.00 | 0.00 | 82 | 932.4 |
| 20260902131626 | 50 | 85 | 2.0 | 2.0 | 0.00 | 0.00 | 0.00 | 82 | 932.4 |
| 20260902131121 | 50 | 70 | 0.0 | 2.0 | 0.00 | 0.00 | 0.00 | 82 | 932.4 |
| 20260902130617 | 50 | 44 | 0.0 | 2.0 | 0.00 | 0.00 | 0.00 | 81 | 932.1 |
| 20260902130117 | 51 | 33 | 0.0 | 0.0 | 0.00 | 0.00 | 0.00 | 81 | 931.9 |
| 20260902125613 | 51 | 62 | 1.0 | 2.0 | 0.00 | 0.00 | 0.00 | 80 | 932.0 |
| 20260902125108 | 51 | 92 | 3.0 | 6.0 | 0.00 | 0.00 | 0.00 | 80 | 931.8 |
| 20260902124606 | 51 | 87 | 4.0 | 5.0 | 0.00 | 0.00 | 0.00 | 80 | 932.0 |
| 20260902124105 | 51 | 56 | 1.0 | 2.0 | 0.00 | 0.00 | 0.00 | 80 | 931.9 |
| 20260902123601 | 51 | 89 | 4.0 | 6.0 | 0.00 | 0.00 | 0.00 | 80 | 932.1 |
| 20260902123055 | 50 | 113 | 1.0 | 3.0 | 0.00 | 0.00 | 0.00 | 81 | 932.0 |
| 20260902122549 | 50 | 52 | 2.0 | 3.0 | 0.00 | 0.00 | 0.00 | 81 | 932.1 |
| 20260902122045 | 51 | 58 | 2.0 | 5.0 | 0.00 | 0.00 | 0.00 | 80 | 932.0 |
| 20260902121540 | 51 | 120 | 4.0 | 6.0 | 0.00 | 0.00 | 0.00 | 80 | 932.1 |
| 20260902121035 | 50 | 58 | 1.0 | 3.0 | 0.00 | 0.00 | 0.00 | 82 | 932.1 |
| 20260902120531 | 50 | 87 | 1.0 | 3.0 | 0.00 | 0.00 | 0.00 | 82 | 932.3 |
| 20260902120027 | 50 | 136 | 2.0 | 3.0 | 0.00 | 0.00 | 0.00 | 82 | 932.4 |
| 20260902115522 | 50 | 109 | 0.0 | 3.0 | 0.00 | 0.00 | 0.00 | 81 | 932.1 |
| 20260902115018 | 50 | 71 | 3.0 | 5.0 | 0.00 | 0.00 | 0.00 | 81 | 932.3 |
| 20260902114513 | 51 | 125 | 3.0 | 3.0 | 0.00 | 0.00 | 0.00 | 81 | 932.4 |
| 20260902114013 | 51 | 47 | 1.0 | 2.0 | 0.00 | 0.00 | 0.00 | 81 | 932.5 |
| 20260902113509 | 51 | 56 | 1.0 | 3.0 | 0.00 | 0.00 | 0.00 | 81 | 932.5 |
| 20260902113004 | 51 | 42 | 0.0 | 0.0 | 0.00 | 0.00 | 0.00 | 81 | 932.3 |
| 20260902112459 | 51 | 65 | 1.0 | 1.0 | 0.00 | 0.00 | 0.00 | 81 | 932.4 |
| 20260902111955 | 51 | 76 | 2.0 | 5.0 | 0.00 | 0.00 | 0.00 | 82 | 932.3 |
| 20260902111452 | 51 | 61 | 0.0 | 2.0 | 0.00 | 0.00 | 0.00 | 82 | 932.5 |
| 20260902110947 | 51 | 60 | 0.0 | 0.0 | 0.00 | 0.00 | 0.00 | 82 | 932.5 |
| 20260902110443 | 51 | 70 | 2.0 | 2.0 | 0.00 | 0.00 | 0.00 | 83 | 932.3 |
| 20260902105937 | 50 | 61 | 0.0 | 1.0 | 0.00 | 0.00 | 0.00 | 82 | 932.3 |
| 20260902105432 | 51 | 52 | 0.0 | 0.0 | 0.00 | 0.00 | 0.00 | 81 | 932.5 |
| 20260902104927 | 51 | 60 | 1.0 | 3.0 | 0.00 | 0.00 | 0.00 | 80 | 932.1 |
| 20260902104423 | 51 | 91 | 4.0 | 5.0 | 0.00 | 0.00 | 0.00 | 81 | 932.3 |
| 20260902103922 | 51 | 90 | 3.0 | 3.0 | 0.00 | 0.00 | 0.00 | 81 | 932.1 |
| 20260902103418 | 51 | 90 | 3.0 | 3.0 | 0.00 | 0.00 | 0.00 | 82 | 932.3 |
| 20260902102913 | 51 | 90 | 2.0 | 3.0 | 0.00 | 0.00 | 0.00 | 82 | 932.3 |
| 20260902102410 | 51 | 76 | 0.0 | 0.0 | 0.00 | 0.00 | 0.00 | 82 | 932.0 |
| 20260902101906 | 51 | 75 | 0.0 | 0.0 | 0.00 | 0.00 | 0.00 | 82 | 932.3 |
| 20260902101400 | 51 | 55 | 0.0 | 0.0 | 0.00 | 0.00 | 0.00 | 83 | 932.0 |
| 20260902100900 | 51 | 48 | 0.0 | 0.0 | 0.00 | 0.00 | 0.00 | 83 | 931.9 |
| 20260902100359 | 51 | 48 | 0.0 | 0.0 | 0.00 | 0.00 | 0.00 | 83 | 932.3 |
| 20260902095855 | 51 | 45 | 0.0 | 0.0 | 0.00 | 0.00 | 0.00 | 82 | 932.0 |
| 20260902095355 | 51 | 46 | 0.0 | 0.0 | 0.00 | 0.00 | 0.00 | 81 | 932.3 |
| 20260902094854 | 52 | 46 | 0.0 | 0.0 | 0.00 | 0.00 | 0.00 | 80 | 932.3 |
| 20260902094351 | 53 | 47 | 0.0 | 0.0 | 0.00 | 0.00 | 0.00 | 79 | 932.5 |
| 20260902093850 | 53 | 67 | 1.0 | 2.0 | 0.00 | 0.00 | 0.00 | 78 | 932.5 |
| 20260902093345 | 54 | 44 | 0.0 | 2.0 | 0.00 | 0.00 | 0.00 | 77 | 932.6 |
| 20260902092844 | 54 | 59 | 1.0 | 3.0 | 0.00 | 0.00 | 0.00 | 77 | 932.4 |
| 20260902092335 | 54 | 72 | 3.0 | 3.0 | 0.00 | 0.00 | 0.00 | 78 | 932.6 |
| 20260902091834 | 54 | 52 | 0.0 | 2.0 | 0.00 | 0.00 | 0.00 | 79 | 932.3 |
| 20260902091330 | 53 | 34 | 0.0 | 0.0 | 0.00 | 0.00 | 0.00 | 79 | 932.5 |
| 20260902090827 | 53 | 42 | 0.0 | 0.0 | 0.00 | 0.00 | 0.00 | 80 | 932.4 |
| 20260902090326 | 53 | 40 | 0.0 | 0.0 | 0.00 | 0.00 | 0.00 | 80 | 932.4 |
| 20260902085825 | 53 | 40 | 0.0 | 0.0 | 0.00 | 0.00 | 0.00 | 80 | 932.3 |
| 20260902085320 | 53 | 39 | 0.0 | 0.0 | 0.00 | 0.00 | 0.00 | 79 | 932.4 |
| 20260902084816 | 53 | 44 | 0.0 | 0.0 | 0.00 | 0.00 | 0.00 | 79 | 932.5 |
| 20260902084313 | 53 | 43 | 0.0 | 0.0 | 0.00 | 0.00 | 0.00 | 79 | 932.5 |
| 20260902083807 | 54 | 61 | 0.0 | 0.0 | 0.00 | 0.00 | 0.00 | 78 | 932.4 |
| 20260902083307 | 54 | 79 | 2.0 | 2.0 | 0.00 | 0.00 | 0.00 | 78 | 932.1 |
| 20260902082802 | 54 | 70 | 0.0 | 1.0 | 0.00 | 0.00 | 0.00 | 78 | 932.7 |
| 20260902082259 | 54 | 25 | 0.0 | 0.0 | 0.00 | 0.00 | 0.00 | 77 | 932.5 |
| 20260902081755 | 55 | 17 | 0.0 | 0.0 | 0.00 | 0.00 | 0.00 | 76 | 932.4 |
| 20260902081250 | 55 | 73 | 0.0 | 0.0 | 0.00 | 0.00 | 0.00 | 76 | 932.5 |
| 20260902080745 | 55 | 75 | 0.0 | 0.0 | 0.00 | 0.00 | 0.00 | 76 | 932.4 |
| 20260902080242 | 55 | 52 | 0.0 | 2.0 | 0.00 | 0.00 | 0.00 | 76 | 932.3 |
| 20260902075741 | 55 | 83 | 0.0 | 5.0 | 0.00 | 0.00 | 0.00 | 78 | 932.3 |
| 20260902075238 | 54 | 69 | 0.0 | 0.0 | 0.00 | 0.00 | 0.00 | 79 | 932.0 |
| 20260902074737 | 55 | 54 | 0.0 | 2.0 | 0.00 | 0.00 | 0.00 | 78 | 932.3 |
| 20260902074233 | 55 | 87 | 0.0 | 1.0 | 0.00 | 0.00 | 0.00 | 78 | 932.4 |
| 20260902073728 | 56 | 95 | 5.0 | 6.0 | 0.00 | 0.00 | 0.00 | 77 | 932.3 |
| 20260902073224 | 56 | 92 | 3.0 | 6.0 | 0.00 | 0.00 | 0.00 | 77 | 932.0 |
| 20260902072720 | 56 | 85 | 0.0 | 0.0 | 0.00 | 0.00 | 0.00 | 76 | 932.3 |
| 20260902072216 | 56 | 66 | 0.0 | 0.0 | 0.00 | 0.00 | 0.00 | 76 | 932.6 |
| 20260902071712 | 56 | 79 | 0.0 | 0.0 | 0.00 | 0.00 | 0.00 | 75 | 932.5 |
| 20260902071207 | 56 | 84 | 0.0 | 0.0 | 0.00 | 0.00 | 0.00 | 76 | 932.5 |
| 20260902070703 | 56 | 71 | 0.0 | 2.0 | 0.00 | 0.00 | 0.00 | 77 | 932.1 |
| 20260902070202 | 56 | 119 | 0.0 | 1.0 | 0.00 | 0.00 | 0.00 | 77 | 932.4 |
| 20260902065701 | 56 | 113 | 1.0 | 3.0 | 0.00 | 0.00 | 0.00 | 77 | 932.1 |
| 20260902065157 | 56 | 120 | 2.0 | 3.0 | 0.00 | 0.00 | 0.00 | 76 | 932.3 |
| 20260902064652 | 56 | 119 | 0.0 | 0.0 | 0.00 | 0.00 | 0.00 | 76 | 932.1 |
| 20260902064148 | 57 | 60 | 0.0 | 0.0 | 0.00 | 0.00 | 0.00 | 75 | 931.9 |
| 20260902063643 | 57 | 127 | 2.0 | 3.0 | 0.00 | 0.00 | 0.00 | 75 | 932.1 |
| 20260902063138 | 56 | 63 | 0.0 | 0.0 | 0.00 | 0.00 | 0.00 | 76 | 932.1 |
| 20260902062637 | 56 | 46 | 0.0 | 0.0 | 0.00 | 0.00 | 0.00 | 76 | 931.9 |
| 20260902062132 | 56 | 49 | 0.0 | 0.0 | 0.00 | 0.00 | 0.00 | 76 | 931.9 |
| 20260902061631 | 56 | 52 | 0.0 | 2.0 | 0.00 | 0.00 | 0.00 | 76 | 932.0 |
| 20260902061127 | 56 | 37 | 0.0 | 0.0 | 0.00 | 0.00 | 0.00 | 77 | 932.1 |
| 20260902060624 | 56 | 44 | 0.0 | 0.0 | 0.00 | 0.00 | 0.00 | 77 | 932.0 |
| 20260902060120 | 56 | 89 | 1.0 | 2.0 | 0.00 | 0.00 | 0.00 | 77 | 932.1 |
| 20260902055615 | 56 | 63 | 0.0 | 1.0 | 0.00 | 0.00 | 0.00 | 76 | 932.1 |
| 20260902055111 | 57 | 30 | 0.0 | 0.0 | 0.00 | 0.00 | 0.00 | 76 | 932.0 |
| 20260902054605 | 57 | 27 | 0.0 | 0.0 | 0.00 | 0.00 | 0.00 | 75 | 931.9 |
| 20260902054102 | 57 | 43 | 0.0 | 0.0 | 0.00 | 0.00 | 0.00 | 75 | 932.1 |
| 20260902053557 | 57 | 8 | 0.0 | 3.0 | 0.00 | 0.00 | 0.00 | 74 | 932.3 |
| 20260902053051 | 58 | 39 | 0.0 | 0.0 | 0.00 | 0.00 | 0.00 | 73 | 932.4 |
| 20260902052551 | 58 | 42 | 0.0 | 0.0 | 0.00 | 0.00 | 0.00 | 72 | 932.3 |
| 20260902052047 | 59 | 45 | 0.0 | 1.0 | 0.00 | 0.00 | 0.00 | 71 | 932.4 |
| 20260902051546 | 59 | 11 | 2.0 | 2.0 | 0.00 | 0.00 | 0.00 | 71 | 932.3 |
| 20260902051045 | 59 | 83 | 1.0 | 1.0 | 0.00 | 0.00 | 0.00 | 71 | 932.3 |
| 20260902050540 | 59 | 114 | 0.0 | 2.0 | 0.00 | 0.00 | 0.00 | 70 | 932.4 |
| 20260902050035 | 59 | 107 | 0.0 | 5.0 | 0.00 | 0.00 | 0.00 | 69 | 932.6 |
| 20260902045531 | 60 | 96 | 0.0 | 0.0 | 0.00 | 0.00 | 0.00 | 67 | 932.8 |
| 20260902045028 | 60 | 96 | 0.0 | 0.0 | 0.00 | 0.00 | 0.00 | 68 | 932.9 |
| 20260902044527 | 60 | 318 | 1.0 | 3.0 | 0.00 | 0.00 | 0.00 | 67 | 932.7 |
| 20260902044023 | 60 | 19 | 0.0 | 0.0 | 0.00 | 0.00 | 0.00 | 69 | 932.1 |
| 20260902043519 | 59 | 90 | 0.0 | 6.0 | 0.00 | 0.00 | 0.00 | 70 | 932.1 |
| 20260902043018 | 59 | 86 | 1.0 | 5.0 | 0.00 | 0.00 | 0.00 | 70 | 932.1 |
| 20260902042518 | 59 | 96 | 0.0 | 2.0 | 0.00 | 0.00 | 0.00 | 71 | 932.3 |
| 20260902042013 | 59 | 64 | 0.0 | 0.0 | 0.00 | 0.00 | 0.00 | 70 | 932.0 |
| 20260902041508 | 59 | 70 | 0.0 | 3.0 | 0.00 | 0.00 | 0.00 | 70 | 932.4 |
| 20260902041003 | 59 | 48 | 0.0 | 0.0 | 0.00 | 0.00 | 0.00 | 70 | 932.6 |
| 20260902040502 | 60 | 29 | 0.0 | 0.0 | 0.00 | 0.00 | 0.00 | 69 | 932.6 |
| 20260902040001 | 60 | 46 | 0.0 | 0.0 | 0.00 | 0.00 | 0.00 | 68 | 932.5 |
| 20260902035456 | 61 | 70 | 2.0 | 3.0 | 0.00 | 0.00 | 0.00 | 67 | 932.4 |
| 20260902034957 | 61 | 2 | 0.0 | 2.0 | 0.00 | 0.00 | 0.00 | 66 | 932.1 |
| 20260902034457 | 61 | 350 | 0.0 | 5.0 | 0.00 | 0.00 | 0.00 | 67 | 932.1 |
| 20260902033956 | 61 | 31 | 0.0 | 3.0 | 0.00 | 0.00 | 0.00 | 66 | 932.3 |
| 20260902033455 | 61 | 105 | 0.0 | 0.0 | 0.00 | 0.00 | 0.00 | 67 | 932.3 |
| 20260902032954 | 61 | 15 | 1.0 | 2.0 | 0.00 | 0.00 | 0.00 | 67 | 931.9 |
| 20260902032449 | 60 | 7 | 0.0 | 0.0 | 0.00 | 0.00 | 0.00 | 69 | 931.6 |
| 20260902031944 | 60 | 21 | 0.0 | 0.0 | 0.00 | 0.00 | 0.00 | 69 | 931.1 |
| 20260902031439 | 60 | 45 | 0.0 | 0.0 | 0.00 | 0.00 | 0.00 | 69 | 931.0 |
| 20260902030936 | 61 | 61 | 0.0 | 0.0 | 0.00 | 0.00 | 0.00 | 69 | 931.0 |
| 20260902030430 | 61 | 57 | 0.0 | 0.0 | 0.00 | 0.00 | 0.00 | 68 | 930.9 |
| 20260902025929 | 62 | 45 | 0.0 | 0.0 | 0.00 | 0.00 | 0.00 | 67 | 930.7 |
| 20260902025425 | 61 | 48 | 0.0 | 0.0 | 0.00 | 0.00 | 0.00 | 67 | 930.8 |
| 20260902024920 | 61 | 53 | 0.0 | 0.0 | 0.00 | 0.00 | 0.00 | 67 | 931.0 |
| 20260902024415 | 61 | 92 | 0.0 | 0.0 | 0.00 | 0.00 | 0.00 | 67 | 931.8 |
| 20260902023910 | 62 | 42 | 0.0 | 0.0 | 0.00 | 0.00 | 0.00 | 67 | 931.9 |
| 20260902023406 | 62 | 39 | 0.0 | 3.0 | 0.00 | 0.00 | 0.00 | 66 | 932.0 |
| 20260902022905 | 62 | 117 | 0.0 | 5.0 | 0.00 | 0.00 | 0.00 | 66 | 932.1 |
| 20260902022400 | 62 | 90 | 3.0 | 6.0 | 0.00 | 0.00 | 0.00 | 65 | 931.9 |
| 20260902021857 | 63 | 117 | 3.0 | 5.0 | 0.00 | 0.00 | 0.00 | 65 | 931.8 |
| 20260902021356 | 63 | 93 | 0.0 | 0.0 | 0.00 | 0.00 | 0.00 | 63 | 931.9 |
| 20260902020852 | 64 | 92 | 1.0 | 1.0 | 0.00 | 0.00 | 0.00 | 62 | 931.8 |
| 20260902020348 | 64 | 75 | 0.0 | 0.0 | 0.00 | 0.00 | 0.00 | 62 | 931.7 |
| 20260902015843 | 65 | 48 | 0.0 | 3.0 | 0.00 | 0.00 | 0.00 | 60 | 931.7 |
| 20260902015338 | 67 | 83 | 0.0 | 2.0 | 0.00 | 0.00 | 0.00 | 56 | 931.8 |
| 20260902014834 | 68 | 93 | 1.0 | 10.0 | 0.00 | 0.00 | 0.00 | 53 | 931.8 |
| 20260902014331 | 68 | 131 | 4.0 | 9.0 | 0.00 | 0.00 | 0.00 | 52 | 931.8 |
| 20260902013829 | 69 | 146 | 2.0 | 8.0 | 0.00 | 0.00 | 0.00 | 52 | 932.0 |
| 20260902013325 | 69 | 198 | 6.0 | 9.0 | 0.00 | 0.00 | 0.00 | 52 | 932.0 |
| 20260902012820 | 69 | 156 | 2.0 | 7.0 | 0.00 | 0.00 | 0.00 | 51 | 932.0 |
| 20260902012316 | 70 | 46 | 5.0 | 9.0 | 0.00 | 0.00 | 0.00 | 50 | 931.8 |
| 20260902011811 | 71 | 150 | 5.0 | 10.0 | 0.00 | 0.00 | 0.00 | 48 | 931.8 |
| 20260902011306 | 73 | 300 | 4.0 | 9.0 | 0.00 | 0.00 | 0.00 | 40 | 932.0 |
| 20260902010805 | 73 | 263 | 4.0 | 7.0 | 0.00 | 0.00 | 0.00 | 39 | 932.1 |
| 20260902010301 | 73 | 218 | 5.0 | 10.0 | 0.00 | 0.00 | 0.00 | 38 | 932.0 |
| 20260902005759 | 73 | 230 | 6.0 | 14.0 | 0.00 | 0.00 | 0.00 | 38 | 932.3 |
| 20260902005255 | 73 | 289 | 2.0 | 5.0 | 0.00 | 0.00 | 0.00 | 37 | 932.5 |
| 20260902004755 | 74 | 219 | 4.0 | 9.0 | 0.00 | 0.00 | 0.00 | 38 | 932.4 |
| 20260902004250 | 74 | 215 | 4.0 | 9.0 | 0.00 | 0.00 | 0.00 | 36 | 932.3 |
| 20260902003744 | 74 | 154 | 5.0 | 9.0 | 0.00 | 0.00 | 0.00 | 38 | 932.4 |
| 20260902003240 | 74 | 223 | 5.0 | 10.0 | 0.00 | 0.00 | 0.00 | 37 | 932.3 |
| 20260902002736 | 74 | 196 | 5.0 | 7.0 | 0.00 | 0.00 | 0.00 | 37 | 932.3 |
| 20260902002235 | 74 | 222 | 5.0 | 10.0 | 0.00 | 0.00 | 0.00 | 36 | 932.4 |
| 20260902001731 | 75 | 166 | 7.0 | 11.0 | 0.00 | 0.00 | 0.00 | 36 | 932.6 |
| 20260902001231 | 75 | 286 | 3.0 | 5.0 | 0.00 | 0.00 | 0.00 | 36 | 932.7 |
| 20260902000726 | 75 | 247 | 4.0 | 8.0 | 0.00 | 0.00 | 0.00 | 36 | 932.6 |
| 20260902000221 | 75 | 238 | 6.0 | 10.0 | 0.00 | 0.00 | 0.00 | 37 | 932.9 |
| 20260901235721 | 75 | 233 | 3.0 | 3.0 | 0.00 | 0.00 | 0.00 | 38 | 933.1 |
| 20260901235216 | 75 | 281 | 6.0 | 11.0 | 0.00 | 0.00 | 0.00 | 37 | 932.8 |
| 20260901234715 | 76 | 192 | 6.0 | 11.0 | 0.00 | 0.00 | 0.00 | 36 | 933.1 |
| 20260901234210 | 76 | 244 | 6.0 | 13.0 | 0.00 | 0.00 | 0.00 | 36 | 932.9 |
| 20260901233710 | 75 | 221 | 8.0 | 15.0 | 0.00 | 0.00 | 0.00 | 35 | 933.1 |
| 20260901233206 | 76 | 271 | 9.0 | 15.0 | 0.00 | 0.00 | 0.00 | 34 | 932.8 |
| 20260901232701 | 76 | 188 | 8.0 | 17.0 | 0.00 | 0.00 | 0.00 | 34 | 932.9 |
| 20260901232156 | 77 | 248 | 7.0 | 10.0 | 0.00 | 0.00 | 0.00 | 34 | 932.8 |
| 20260901231653 | 77 | 296 | 3.0 | 13.0 | 0.00 | 0.00 | 0.00 | 34 | 932.8 |
| 20260901231148 | 76 | 230 | 7.0 | 13.0 | 0.00 | 0.00 | 0.00 | 33 | 932.7 |
| 20260901230639 | 75 | 210 | 4.0 | 13.0 | 0.00 | 0.00 | 0.00 | 35 | 932.8 |
| 20260901230139 | 76 | 121 | 7.0 | 13.0 | 0.00 | 0.00 | 0.00 | 35 | 932.5 |
| 20260901225633 | 75 | 136 | 2.0 | 11.0 | 0.00 | 0.00 | 0.00 | 36 | 932.8 |
| 20260901225128 | 77 | 225 | 7.0 | 11.0 | 0.00 | 0.00 | 0.00 | 35 | 932.7 |
| 20260901224624 | 77 | 215 | 7.0 | 11.0 | 0.00 | 0.00 | 0.00 | 35 | 932.7 |
| 20260901224120 | 77 | 236 | 6.0 | 9.0 | 0.00 | 0.00 | 0.00 | 35 | 932.8 |
| 20260901223615 | 75 | 186 | 5.0 | 8.0 | 0.00 | 0.00 | 0.00 | 36 | 933.1 |